Orbital Elements at Epoch 2459200.5 (2020-Dec-17.0) TDB
Reference: JPL 29 (heliocentric ecliptic J2000)
Element | Value | Uncertainty (1-sigma) | Units |
e | .1431697550305274 | 3.4308e-08 | |
a | 2.276866439407772 | 8.4981e-09 | au |
q | 1.950888029040532 | 7.9567e-08 | au |
i | 7.15115653534332 | 4.4769e-06 | deg |
node | 52.77165377452113 | 3.206e-05 | deg |
peri | 249.8555258787242 | 3.622e-05 | deg |
M | 223.0834675054302 | 1.8262e-05 | deg |
tp | 2459677.763422721380 (2022-Apr-08.26342272) | 6.4572e-05 | TDB |
period | 1254.887405116772 3.44 | 7.0255e-06 1.923e-08 | d yr |
n | .2868783275153684 | 1.6061e-09 | deg/d |
Q | 2.602844849775012 | 9.7147e-09 | au |
|
| | Orbit Determination Parameters
Additional Information
|